Location: Bois de la Silve
(44.4667°N, 6.7833°E)
Time: 10:56:30
(UTC+00:00)

Cosmos 1271 Rocket - Pass Details

Date: 14 July 2020
Orbit: 497 x 546 km, 81.2° (Epoch: 05 August)

Event Time Altitude Azimuth Distance (km) Brightness Sun altitude
Rises 02:40:53 0° 353° (N) 2,625 6.9 -11.9°
Reaches altitude 10° 02:43:04 10° 358° (N) 1,728 6.0 -11.7°
Maximum altitude 02:46:47 56° 77° (ENE) 603 3.3 -11.2°
Drops below altitude 10° 02:50:27 10° 157° (SSE) 1,698 5.1 -10.8°
Sets 02:52:35 0° 161° (SSE) 2,574 6.0 -10.5°
